Location: downtown San Diego
(32.7310°N, 117.1990°W)
Time: 03:19:20
(UTC-07:00)

Daily predictions for brighter satellites

Satellite Brightness Start Highest point End
(mag) Time Altitude Azimuth Time Altitude Azimuth Time Altitude Azimuth
CENTAUR R/B 4.5 02:03:45 22° NNW 02:03:45 22° NNW 02:07:02 10° N
CZ-4C R/B 4.3 02:04:27 10° NNW 02:07:39 29° NNW 02:07:39 29° NNW
Resurs 1-4 Rocket 4.3 02:23:53 10° NNE 02:25:41 22° NNE 02:25:41 22° NNE
Cosmos 2322 Rocket 4.3 02:27:25 10° NNE 02:31:38 21° ENE 02:32:27 20° ENE
Lacrosse 5 4.1 02:54:21 20° N 02:54:21 20° N 02:56:13 10° NNE
COSMOS 2455 4.1 03:00:10 34° E 03:00:10 34° E 03:04:31 10° NE
SL-16 R/B 3.7 03:22:58 31° NW 03:22:58 31° NW 03:26:08 10° NNW
ADEOS II 3.2 03:16:37 10° NNE 03:21:07 39° E 03:21:07 39° E
USA 229 DEB 3.9 03:43:09 53° SSE 03:44:14 59° ESE 03:50:54 10° NE
USA 229 3.9 03:43:14 52° SSE 03:44:21 58° ESE 03:51:01 10° NE
ARIANE 5 R/B 3.6 03:39:57 10° N 03:43:18 35° NNW 03:43:18 35° NNW
SL-16 R/B 2.8 03:40:10 10° NNW 03:44:05 46° NNW 03:44:05 46° NNW
Cosmos 1833 4.2 03:46:49 76° N 03:46:49 76° N 03:52:00 10° NNE
CZ-2D R/B 4.0 03:47:06 10° NNW 03:49:19 19° NW 03:49:19 19° NW
Tiangong 2 4.1 03:53:24 15° NNE 03:53:24 15° NNE 03:54:19 10° NE
Cosmos 1455 4.2 03:57:30 22° ESE 03:58:24 25° E 04:01:36 10° NE
Cosmos 468 Rocket 4.4 04:02:24 48° SSE 04:03:25 58° ESE 04:08:31 10° NNE
Cosmos 2360 Rocket 2.8 04:00:00 10° NNW 04:05:35 57° ENE 04:11:07 10° SE
Resurs 1-4 Rocket 4.2 04:05:32 10° NNW 04:06:46 13° NW 04:06:46 13° NW
Atlas Centaur 2 2.5 04:09:25 52° SSW 04:10:11 55° SSE 04:15:38 10° E
ADEOS 3.6 04:07:55 10° N 04:13:02 57° WNW 04:13:05 57° WNW
Cosmos 2315 Rocket 4.4 04:07:54 10° NNW 04:13:13 42° WNW 04:13:13 42° WNW
Cosmos 2322 Rocket 3.0 04:10:28 10° NW 04:14:07 35° WNW 04:14:07 35° WNW
Cosmos 405 4.1 04:19:20 10° N 04:21:28 35° N 04:21:28 35° N
NOSS 3-1 (C) 3.4 04:22:35 37° S 04:24:45 69° ESE 04:30:46 10° NE
Iridium 4 Rocket 4.5 04:24:12 10° NNW 04:29:24 34° W 04:29:24 34° W
Cosmos 2208 Rocket 4.1 04:29:53 46° SW 04:31:24 66° WNW 04:36:50 10° N
Sich 1 4.0 04:30:15 10° N 04:34:23 46° E 04:38:31 10° SSE
Cosmos 1892 2.5 04:38:19 10° N 04:42:08 84° W 04:44:08 27° S
GPS 2-05 Rocket1 2.8 04:42:15 56° NNW 04:42:37 62° N 04:45:47 10° E
CZ-4B R/B 3.2 04:40:03 10° NNE 04:43:46 56° E 04:46:11 19° S
COSMOS 2455 3.8 04:43:20 26° W 04:44:58 30° WNW 04:50:11 10° N
RUBIN 8/PSLV 4.5 04:40:44 10° N 04:45:09 76° WNW 04:47:17 30° SSW
Cosmos 2221 3.8 04:46:00 23° WNW 04:46:00 23° WNW 04:48:50 10° NNW
Okean O Rocket 3.5 04:43:59 10° NE 04:47:46 29° E 04:51:31 10° SSE
Cosmos 1745 Rocket 4.1 04:44:53 27° SSW 04:48:10 53° W 04:54:10 10° N
PSLV R/B 3.4 04:44:04 10° N 04:48:13 64° WNW 04:49:56 33° SW
Meteor 1-27 4.3 04:42:44 11° S 04:48:21 83° E 04:54:06 10° N
Cosmos 841 Rocket 3.8 04:44:33 14° S 04:48:53 66° ESE 04:53:59 10° NNE
Meteor 2-2 Rocket 4.2 04:47:51 17° SSW 04:52:18 74° W 04:58:10 10° N
Helios 1A Rocket 4.3 04:49:09 10° NNW 04:52:21 23° WNW 04:52:21 23° WNW
Cosmos 2219 Rocket 3.6 04:48:49 10° N 04:54:09 41° ENE 04:59:29 10° SE
Cosmos 1633 Rocket 3.6 04:51:47 10° N 04:56:07 59° E 05:00:25 10° SSE
Cosmos 1814 Rocket 3.9 04:53:14 20° SSW 04:56:55 79° WNW 05:02:07 10° NNE
Cosmos 405 Rocket 3.1 04:56:30 34° WSW 04:57:37 43° W 05:01:28 10° N
Shenzhou-11 Module 4.3 04:57:12 10° NW 04:59:34 21° NNE 05:01:55 10° ENE
Cosmos 990 Rocket 4.3 04:55:00 10° N 05:00:10 67° ENE 05:05:15 10° SSE
ADEOS II 3.4 04:57:06 10° NNW 05:00:54 21° WNW 05:02:03 19° W
Cosmos 1763 Rocket 3.5 04:59:43 23° SW 05:02:45 56° WNW 05:07:46 10° N
Cosmos 2322 3.7 05:01:01 10° NNW 05:06:34 59° WSW 05:12:05 10° S
Cosmos 1515 Rocket 4.2 05:04:29 10° S 05:08:52 58° E 05:13:13 10° NNE
Cosmos 2219 3.2 05:05:32 16° SSW 05:10:07 67° WNW 05:15:44 10° NNE
Cosmos 2237 4.4 05:07:33 10° NNW 05:13:00 48° WSW 05:18:24 10° S
Meteor 2-3 Rocket 3.6 05:07:45 10° N 05:13:21 79° W 05:18:57 10° S
Meteor 1-28 Rocket 3.1 05:10:24 10° S 05:14:10 81° WSW 05:17:59 10° NNW
Cosmos 1709 Rocket 3.9 05:08:15 10° SSW 05:14:18 69° W 05:20:23 10° N
Cosmos 1805 Rocket 4.2 05:11:14 10° NNW 05:15:07 32° W 05:18:58 10° SSW
Cosmos 292 Rocket 4.4 05:12:46 19° SW 05:15:37 37° WNW 05:20:08 10° N
ARGOS Delta rocket 3.7 05:11:59 10° S 05:16:21 59° W 05:20:56 10° NNW
Meteor 1-31 Rocket 2.7 05:13:05 10° NNE 05:16:55 85° ESE 05:20:41 10° S
CZ-4B R/B 4.0 05:22:48 10° N 05:26:59 75° WNW 05:31:19 10° SSW
IDEFIX/ARIANE 42P 2.8 05:21:48 10° NNE 05:27:02 78° ESE 05:32:16 10° S
Tiangong 2 3.8 05:27:31 10° NNW 05:29:14 14° N 05:30:56 10° NNE
Cosmos 1151 Rocket 2.9 05:26:40 10° SSW 05:30:55 69° W 05:35:12 10° N
CZ-2C R/B 3.4 05:28:37 10° NNE 05:33:02 46° E 05:37:23 10° S
Cosmos 1455 4.0 05:32:29 13° WSW 05:34:00 16° WNW 05:36:23 10° NW
Cosmos 1408 2.8 05:31:28 10° NNW 05:35:04 47° W 05:38:39 10° SSW
NOSS 3-1 (A) 3.6 05:30:36 11° SW 05:35:44 49° NW 05:41:42 10° NNE
Meteor 1-4 Rocket 2.9 05:32:42 10° N 05:36:10 68° E 05:39:41 10° SSE
NOSS 0 Rocket 4.5 05:30:56 10° NNW 05:37:02 64° ENE 05:43:06 10° SSE
Cosmos 2082 4.2 05:34:49 10° S 05:40:23 66° ESE 05:45:58 10° NNE
Cosmos 2297 Rocket 2.3 05:34:56 10° SSW 05:40:33 86° ESE 05:46:14 10° NNE
Cosmos 540 Rocket 3.5 05:36:47 10° SSW 05:41:48 61° WNW 05:46:52 10° N
CZ-3 Stage 3 4.2 05:09:41 10° WNW 05:47:31 58° SSW 05:53:53 10° SE
Cosmos 2360 Rocket 3.7 05:45:53 10° WNW 05:48:58 15° W 05:52:03 10° SW
Cosmos 389 Rocket 3.9 05:45:57 10° N 05:49:22 45° E 05:52:47 10° SSE
Meteor PRIRODA 4.4 05:46:00 10° N 05:49:26 35° WNW 05:52:51 10° SW
IRS-1C Rocket 4.3 05:44:42 10° NNE 05:49:58 78° ESE 05:55:13 10° S
CZ-4B R/B 3.3 05:46:49 10° N 05:52:21 64° WNW 05:57:45 10° SSW
USA 161 0.7 05:50:46 10° SSE 05:52:24 57° ENE 05:53:54 10° N
NOAA 6 4.4 05:50:11 10° NNE 05:55:20 70° ESE 06:00:27 10° S
Cosmos 2074 Rocket 4.0 05:49:49 10° S 05:56:07 80° W 06:02:26 10° N
